Temp
-6 -6 -6 -6 -6 -6 -6 -6 -6 -6 -6 -6 -6 -6 -7 -7 -7 -7 -7 -7 -7 -7 -7 -7 -7 -7 -8 -8 -8 -8 -8 -8 -8 -8 -8 -8 -9 -9 -9 -9 -9 -9 -9 -9 -8 -8 -8 -8 -8 -8 -8 -8 -8 -8 -7 -7 -7 -7 -7 -7 -7 -7 -7 -6 -6 -6 -6 -6 -6 -6 -6 -5 -5 -5
-5 -6 -6 -6 -6 -6 -6 -6 -6 -6 -6 -6 -6 -6 -7 -7 -7 -7 -7 -7 -7 -7 -7 -7 -7 -7 -7 -7 -8 -8 -8 -8 -8 -8 -8 -8 -8 -9 -9 -9 -9 -9 -9 -9 -8 -8 -8 -8 -8 -8 -8 -8 -8 -8 -7 -7 -7 -7 -7 -7 -7 -7 -6 -6 -6 -6 -6 -6 -6 -6 -6 -5 -6 -6
-5 -5 -6 -6 -6 -6 -6 -6 -6 -6 -6 -6 -6 -6 -7 -7 -7 -7 -7 -7 -7 -7 -7 -7 -7 -7 -7 -7 -8 -8 -8 -8 -8 -8 -8 -8 -8 -9 -9 -8 -8 -9 -9 -9 -9 -8 -8 -8 -8 -8 -8 -8 -8 -7 -7 -7 -7 -7 -7 -7 -7 -7 -6 -6 -6 -6 -6 -6 -6 -6 -6 -5 -6 -6
-5 -5 -6 -6 -6 -6 -6 -6 -6 -6 -6 -6 -6 -6 -7 -7 -7 -7 -7 -7 -7 -7 -7 -7 -7 -7 -8 -8 -8 -8 -8 -8 -8 -8 -8 -8 -8 -8 -9 -8 -8 -9 -9 -9 -9 -8 -8 -8 -8 -8 -7 -7 -7 -7 -7 -7 -7 -7 -7 -7 -7 -7 -6 -6 -6 -6 -6 -6 -6 -6 -6 -6 -6 -6
-5 -5 -6 -6 -6 -6 -6 -6 -6 -6 -6 -6 -6 -6 -7 -7 -7 -7 -7 -7 -7 -7 -7 -7 -7 -7 -7 -7 -7 -8 -8 -8 -8 -8 -8 -8 -8 -8 -8 -8 -8 -8 -9 -9 -8 -8 -8 -8 -8 -8 -7 -7 -7 -7 -7 -7 -7 -7 -7 -7 -7 -7 -6 -6 -6 -6 -6 -6 -6 -6 -6 -6 -6 -6
-5 -5 -6 -6 -6 -6 -6 -6 -6 -6 -6 -6 -6 -6 -7 -7 -7 -7 -7 -7 -7 -7 -7 -7 -7 -7 -7 -7 -7 -7 -7 -8 -8 -8 -8 -8 -8 -8 -8 -8 -8 -8 -8 -8 -8 -8 -8 -8 -8 -8 -8 -7 -7 -7 -7 -7 -7 -7 -7 -7 -7 -7 -7 -6 -6 -6 -6 -6 -6 -6 -6 -6 -6 -6
-5 -5 -5 -6 -6 -6 -6 -6 -6 -6 -6 -6 -6 -6 -7 -7 -7 -7 -7 -7 -7 -7 -7 -7 -7 -7 -7 -7 -7 -7 -7 -7 -7 -8 -8 -8 -8 -8 -8 -8 -8 -8 -8 -8 -8 -8 -8 -8 -8 -8 -8 -8 -7 -7 -7 -7 -7 -7 -7 -7 -7 -7 -6 -6 -6 -6 -6 -6 -6 -6 -6 -6 -6 -6
-5 -5 -5 -5 -6 -6 -6 -6 -6 -6 -6 -6 -6 -6 -7 -7 -7 -7 -7 -7 -7 -7 -7 -7 -7 -7 -7 -7 -7 -7 -7 -7 -7 -7 -7 -8 -8 -8 -8 -8 -8 -8 -8 -8 -8 -8 -8 -8 -8 -8 -8 -8 -7 -7 -7 -7 -7 -7 -7 -7 -7 -7 -6 -6 -6 -6 -6 -6 -6 -6 -6 -6 -5 -5
-5 -5 -5 -5 -5 -5 -6 -6 -6 -6 -6 -6 -6 -6 -7 -7 -7 -7 -7 -7 -7 -7 -7 -7 -7 -7 -7 -7 -7 -7 -7 -7 -7 -7 -7 -7 -8 -8 -8 -8 -8 -8 -8 -8 -8 -8 -8 -8 -8 -8 -8 -8 -7 -7 -7 -7 -7 -7 -7 -6 -6 -6 -6 -6 -6 -6 -6 -6 -6 -6 -6 -6 -5 -5
-5 -5 -5 -5 -5 -5 -6 -6 -6 -6 -6 -6 -6 -6 -6 -7 -7 -7 -7 -7 -7 -7 -7 -7 -7 -7 -7 -7 -7 -7 -7 -7 -7 -7 -7 -7 -7 -7 -8 -8 -8 -8 -8 -8 -8 -8 -8 -8 -8 -8 -8 -8 -8 -7 -7 -7 -7 -6 -6 -6 -6 -6 -6 -6 -6 -6 -6 -6 -6 -6 -6 -6 -6 -5
-6 -6 -6 -6 -6 -6 -6 -6 -6 -6 -6 -6 -6 -6 -6 -6 -6 -7 -7 -7 -7 -7 -7 -7 -7 -7 -7 -7 -7 -7 -7 -7 -7 -7 -7 -7 -7 -7 -7 -7 -8 -8 -8 -8 -8 -8 -8 -8 -8 -8 -8 -8 -8 -8 -7 -7 -7 -6 -6 -6 -6 -6 -6 -6 -6 -6 -6 -6 -6 -6 -6 -6 -6 -6
-6 -6 -6 -6 -6 -6 -6 -6 -6 -6 -6 -6 -6 -6 -6 -6 -6 -6 -6 -6 -7 -6 -7 -7 -7 -6 -6 -6 -6 -6 -6 -7 -7 -7 -7 -7 -7 -7 -6 -7 -7 -7 -7 -8 -8 -8 -8 -8 -8 -8 -8 -8 -8 -8 -8 -7 -7 -7 -6 -6 -6 -6 -6 -6 -6 -6 -6 -6 -6 -6 -6 -6 -6 -6
-6 -6 -6 -6 -6 -6 -6 -6 -6 -6 -6 -6 -6 -6 -6 -6 -6 -6 -6 -6 -6 -6 -6 -7 -6 -6 -6 -6 -6 -6 -6 -6 -6 -7 -7 -7 -6 -6 -6 -6 -7 -7 -7 -7 -8 -8 -8 -8 -8 -8 -8 -8 -8 -8 -8 -8 -8 -7 -7 -7 -6 -6 -6 -6 -6 -6 -6 -6 -6 -6 -6 -6 -6 -6
-6 -6 -6 -6 -6 -6 -6 -6 -6 -6 -6 -6 -6 -6 -6 -6 -6 -6 -6 -6 -6 -7 -7 -7 -6 -6 -6 -6 -6 -6 -6 -6 -6 -7 -7 -6 -6 -6 -6 -6 -6 -7 -7 -7 -7 -8 -8 -8 -8 -8 -8 -8 -8 -8 -8 -8 -8 -8 -7 -7 -7 -6 -6 -6 -6 -6 -6 -6 -6 -6 -6 -6 -6 -6
-6 -6 -6 -6 -6 -6 -6 -6 -6 -6 -6 -6 -6 -6 -6 -6 -6 -6 -6 -6 -6 -7 -7 -7 -7 -7 -7 -6 -6 -6 -6 -6 -6 -6 -6 -6 -6 -6 -6 -6 -6 -6 -6 -7 -7 -7 -8 -8 -8 -8 -8 -8 -8 -8 -8 -8 -8 -8 -8 -7 -7 -6 -6 -6 -6 -6 -6 -6 -6 -6 -6 -6 -6 -6
-6 -6 -6 -6 -6 -6 -6 -6 -6 -6 -6 -6 -6 -6 -6 -6 -6 -6 -6 -6 -6 -6 -7 -7 -7 -7 -6 -6 -6 -6 -6 -6 -6 -6 -6 -6 -6 -6 -6 -6 -6 -6 -6 -6 -7 -7 -7 -7 -7 -7 -8 -8 -8 -8 -8 -8 -8 -8 -8 -8 -7 -7 -6 -6 -6 -6 -6 -6 -6 -6 -6 -6 -6 -6
-6 -6 -6 -6 -6 -6 -6 -6 -6 -6 -6 -6 -6 -6 -6 -6 -6 -6 -6 -6 -6 -6 -6 -6 -7 -7 -6 -6 -6 -6 -6 -6 -6 -6 -6 -6 -6 -6 -6 -6 -6 -6 -6 -6 -6 -7 -7 -7 -7 -7 -7 -8 -8 -8 -8 -8 -8 -8 -8 -8 -8 -7 -7 -6 -6 -6 -6 -6 -6 -6 -6 -6 -6 -6
-5 -6 -6 -6 -6 -6 -6 -6 -6 -6 -6 -6 -6 -6 -6 -6 -6 -6 -6 -6 -6 -6 -6 -6 -6 -6 -6 -6 -6 -6 -6 -6 -6 -6 -6 -6 -6 -6 -6 -6 -6 -6 -6 -6 -6 -7 -6 -6 -6 -6 -7 -7 -7 -7 -7 -8 -8 -8 -8 -8 -8 -7 -7 -7 -6 -6 -6 -6 -6 -6 -6 -6 -6 -6
-5 -5 -6 -6 -6 -6 -6 -6 -6 -6 -6 -6 -6 -6 -6 -6 -6 -6 -6 -6 -6 -6 -6 -6 -6 -6 -6 -6 -6 -6 -6 -6 -6 -6 -6 -6 -6 -6 -6 -6 -6 -6 -6 -6 -6 -6 -6 -6 -6 -6 -6 -7 -7 -7 -7 -7 -7 -8 -8 -8 -8 -8 -7 -7 -7 -7 -6 -6 -6 -6 -6 -6 -6 -6
-5 -5 -5 -6 -6 -6 -6 -6 -6 -6 -6 -6 -6 -6 -6 -6 -6 -6 -6 -6 -6 -6 -6 -6 -6 -6 -6 -6 -6 -6 -6 -6 -6 -6 -6 -6 -6 -6 -6 -6 -6 -6 -6 -6 -6 -6 -6 -7 -6 -6 -6 -7 -7 -7 -7 -7 -7 -8 -8 -8 -8 -8 -8 -8 -7 -7 -6 -6 -6 -6 -6 -6 -6 -6
-5 -5 -5 -6 -6 -6 -6 -6 -6 -6 -6 -6 -6 -6 -6 -6 -6 -6 -6 -6 -6 -6 -6 -6 -6 -6 -6 -6 -6 -6 -6 -6 -6 -6 -6 -6 -6 -6 -6 -6 -6 -6 -6 -6 -6 -6 -6 -6 -7 -6 -6 -7 -7 -7 -7 -7 -7 -7 -7 -8 -8 -8 -8 -8 -7 -7 -7 -6 -6 -6 -6 -6 -6 -6
-5 -5 -5 -6 -6 -6 -6 -6 -6 -6 -6 -6 -6 -6 -6 -6 -6 -6 -6 -6 -6 -6 -6 -6 -6 -6 -6 -6 -6 -6 -6 -6 -6 -6 -6 -6 -6 -6 -6 -6 -6 -6 -6 -6 -6 -6 -6 -6 -6 -7 -6 -6 -7 -7 -7 -7 -7 -7 -7 -7 -8 -8 -8 -8 -8 -7 -7 -6 -6 -6 -6 -6 -6 -6
-5 -5 -6 -6 -6 -6 -6 -6 -6 -6 -6 -6 -6 -6 -6 -6 -6 -6 -6 -6 -6 -6 -6 -6 -6 -6 -6 -6 -6 -6 -6 -6 -6 -6 -6 -6 -6 -6 -6 -6 -6 -6 -7 -7 -6 -6 -6 -6 -6 -7 -6 -6 -6 -7 -7 -7 -7 -7 -7 -7 -7 -8 -8 -8 -7 -7 -7 -7 -6 -6 -6 -6 -6 -6
-5 -5 -6 -6 -6 -6 -6 -6 -6 -6 -6 -6 -6 -6 -6 -6 -6 -6 -6 -6 -6 -6 -6 -6 -6 -6 -6 -6 -6 -6 -6 -6 -6 -6 -6 -6 -6 -6 -6 -6 -6 -6 -6 -6 -6 -6 -7 -7 -7 -7 -7 -7 -6 -7 -7 -7 -7 -7 -7 -7 -7 -7 -7 -7 -7 -7 -7 -7 -6 -6 -6 -6 -6 -6
-5 -5 -6 -6 -6 -6 -6 -6 -6 -6 -6 -6 -5 -5 -6 -6 -6 -6 -6 -6 -6 -6 -6 -6 -6 -6 -6 -6 -6 -6 -6 -6 -6 -6 -6 -6 -6 -6 -6 -6 -6 -6 -6 -6 -6 -7 -7 -7 -7 -7 -7 -7 -7 -6 -7 -7 -7 -7 -7 -7 -7 -7 -7 -7 -7 -7 -7 -7 -7 -6 -6 -6 -6 -6
-5 -5 -6 -6 -6 -6 -6 -6 -6 -6 -6 -5 -5 -6 -6 -6 -6 -6 -6 -5 -5 -6 -6 -6 -6 -6 -6 -6 -6 -6 -6 -6 -6 -6 -6 -6 -6 -6 -6 -6 -6 -6 -6 -6 -6 -7 -7 -7 -7 -7 -7 -7 -7 -7 -7 -7 -7 -7 -7 -7 -7 -7 -7 -7 -7 -7 -7 -7 -6 -6 -6 -6 -6 -6
-5 -5 -6 -6 -6 -6 -6 -6 -6 -6 -5 -5 -6 -6 -6 -6 -6 -6 -6 -6 -6 -6 -6 -6 -6 -6 -6 -6 -6 -6 -6 -6 -6 -6 -6 -6 -6 -6 -6 -6 -6 -6 -6 -6 -6 -7 -7 -7 -7 -7 -7 -7 -7 -7 -7 -7 -7 -7 -7 -7 -7 -7 -7 -7 -7 -7 -7 -7 -6 -6 -6 -6 -6 -6
-5 -5 -6 -6 -6 -6 -6 -6 -6 -5 -5 -6 -6 -6 -6 -6 -6 -6 -6 -6 -6 -6 -6 -6 -6 -6 -6 -6 -6 -6 -6 -6 -6 -6 -6 -6 -6 -6 -6 -6 -6 -6 -6 -6 -6 -7 -7 -7 -7 -7 -7 -7 -7 -7 -7 -7 -7 -7 -7 -7 -7 -7 -7 -7 -7 -7 -7 -7 -6 -6 -6 -6 -6 -6
-5 -6 -6 -6 -6 -6 -6 -6 -6 -6 -6 -6 -6 -6 -6 -6 -6 -6 -6 -6 -6 -6 -6 -6 -6 -6 -6 -6 -6 -6 -6 -6 -6 -5 -5 -5 -6 -6 -6 -6 -6 -6 -6 -6 -6 -7 -7 -7 -7 -7 -7 -7 -7 -7 -7 -7 -7 -7 -7 -7 -7 -7 -7 -7 -7 -7 -7 -7 -6 -6 -6 -6 -6 -6
-6 -6 -6 -6 -6 -6 -5 -5 -6 -6 -6 -6 -6 -6 -6 -6 -6 -6 -6 -6 -6 -6 -6 -6 -6 -6 -6 -6 -6 -6 -6 -6 -5 -5 -5 -5 -6 -6 -6 -6 -6 -6 -6 -7 -7 -7 -7 -7 -7 -7 -7 -7 -7 -7 -7 -7 -7 -7 -7 -7 -7 -7 -7 -7 -7 -7 -7 -7 -6 -6 -6 -6 -6 -6
-6 -6 -5 -5 -5 -5 -5 -5 -6 -6 -6 -6 -6 -6 -6 -6 -6 -6 -6 -6 -6 -6 -6 -6 -6 -6 -6 -6 -6 -6 -6 -6 -6 -5 -5 -5 -6 -6 -6 -6 -6 -6 -6 -7 -7 -7 -7 -7 -7 -7 -7 -7 -7 -7 -7 -7 -7 -7 -7 -7 -6 -7 -7 -7 -7 -7 -7 -7 -7 -7 -6 -6 -6 -7
-5 -5 -5 -5 -5 -6 -6 -6 -6 -6 -6 -6 -6 -6 -6 -6 -6 -6 -6 -6 -6 -6 -6 -6 -6 -6 -6 -6 -6 -5 -5 -5 -5 -5 -5 -6 -6 -6 -6 -6 -6 -6 -7 -7 -7 -7 -7 -6 -7 -7 -7 -7 -7 -8 -8 -8 -7 -7 -7 -7 -7 -7 -7 -7 -7 -7 -7 -7 -7 -7 -7 -7 -7 -7
-5 -5 -5 -6 -6 -6 -6 -6 -6 -6 -6 -6 -6 -6 -6 -6 -6 -6 -6 -6 -6 -6 -6 -6 -6 -6 -6 -6 -6 -5 -5 -5 -5 -5 -5 -6 -6 -6 -6 -6 -6 -7 -7 -7 -7 -7 -7 -7 -7 -7 -7 -7 -7 -8 -8 -8 -8 -8 -7 -7 -7 -7 -7 -7 -7 -7 -7 -7 -7 -7 -7 -7 -7 -7
-6 -6 -7 -7 -7 -6 -6 -6 -6 -6 -6 -6 -6 -6 -6 -6 -6 -6 -6 -6 -6 -6 -6 -6 -6 -6 -6 -6 -6 -6 -5 -5 -5 -5 -5 -6 -6 -6 -6 -6 -6 -6 -7 -7 -7 -7 -7 -7 -7 -7 -7 -7 -7 -7 -7 -7 -8 -8 -8 -7 -7 -7 -7 -7 -7 -7 -7 -7 -7 -7 -7 -7 -7 -7
-6 -7 -7 -7 -7 -7 -6 -6 -7 -6 -6 -6 -7 -7 -7 -7 -7 -6 -6 -6 -6 -6 -6 -6 -6 -6 -6 -6 -6 -6 -6 -6 -5 -5 -5 -6 -6 -6 -6 -6 -6 -7 -7 -7 -7 -7 -7 -7 -7 -7 -7 -7 -7 -7 -7 -7 -8 -8 -8 -8 -8 -7 -7 -7 -7 -7 -7 -7 -7 -7 -7 -7 -7 -7
-6 -7 -7 -7 -7 -7 -7 -7 -7 -7 -6 -6 -7 -7 -7 -7 -7 -7 -7 -6 -6 -6 -6 -6 -6 -6 -6 -6 -6 -6 -6 -6 -6 -6 -6 -6 -6 -6 -6 -6 -6 -7 -7 -7 -7 -7 -7 -7 -7 -7 -7 -8 -8 -7 -8 -8 -7 -7 -7 -8 -8 -8 -8 -8 -7 -7 -7 -7 -7 -7 -7 -7 -7 -7
-6 -6 -7 -7 -7 -7 -7 -7 -7 -6 -6 -6 -6 -6 -7 -7 -7 -7 -7 -7 -6 -6 -6 -6 -6 -6 -6 -6 -6 -5 -6 -6 -6 -6 -6 -6 -6 -6 -6 -6 -6 -6 -7 -7 -7 -7 -7 -7 -7 -7 -8 -8 -8 -8 -8 -8 -7 -7 -7 -7 -7 -8 -8 -8 -7 -7 -7 -7 -8 -8 -7 -7 -7 -7
-6 -6 -7 -7 -7 -7 -7 -7 -7 -7 -6 -6 -6 -6 -6 -6 -7 -7 -7 -7 -6 -6 -6 -6 -6 -6 -6 -6 -6 -6 -6 -6 -6 -6 -6 -6 -6 -6 -6 -6 -6 -6 -6 -7 -7 -7 -7 -7 -7 -7 -8 -8 -8 -8 -8 -8 -8 -8 -8 -7 -7 -8 -8 -8 -7 -7 -7 -7 -7 -8 -8 -7 -7 -7
-7 -7 -7 -7 -7 -7 -7 -7 -7 -7 -7 -7 -6 -6 -6 -6 -6 -7 -7 -6 -6 -6 -6 -6 -6 -6 -6 -6 -6 -6 -6 -6 -6 -6 -6 -6 -6 -6 -6 -6 -6 -6 -6 -6 -7 -7 -7 -7 -7 -8 -8 -8 -8 -8 -8 -8 -8 -8 -8 -8 -8 -8 -8 -7 -7 -7 -7 -7 -7 -8 -7 -7 -7 -7
-7 -7 -7 -7 -7 -7 -7 -7 -7 -7 -7 -7 -7 -7 -6 -6 -6 -6 -6 -6 -6 -6 -6 -6 -6 -6 -6 -6 -6 -6 -6 -6 -6 -6 -6 -6 -6 -6 -6 -6 -6 -6 -6 -6 -7 -7 -7 -7 -8 -8 -8 -8 -8 -8 -8 -8 -8 -8 -8 -8 -8 -8 -8 -8 -7 -7 -7 -7 -7 -8 -7 -7 -7 -7
-7 -7 -7 -7 -7 -7 -7 -8 -8 -8 -8 -7 -7 -7 -7 -7 -7 -6 -6 -6 -6 -6 -7 -6 -6 -7 -7 -7 -7 -7 -7 -7 -7 -7 -6 -6 -6 -6 -6 -6 -6 -6 -6 -7 -7 -7 -7 -7 -8 -8 -8 -8 -8 -8 -8 -8 -8 -8 -8 -8 -8 -8 -8 -7 -7 -8 -8 -8 -7 -7 -7 -7 -7 -8
-7 -7 -7 -7 -7 -7 -8 -8 -8 -8 -8 -8 -7 -7 -7 -7 -7 -7 -7 -7 -7 -7 -7 -7 -7 -7 -7 -7 -7 -7 -7 -7 -7 -7 -7 -7 -7 -6 -6 -7 -7 -7 -7 -7 -7 -7 -7 -7 -8 -8 -8 -8 -8 -8 -8 -8 -8 -7 -7 -7 -8 -8 -7 -7 -8 -8 -8 -8 -7 -7 -7 -7 -8 -8
-7 -7 -7 -7 -7 -7 -8 -8 -8 -8 -8 -8 -8 -8 -8 -7 -7 -7 -7 -7 -7 -8 -7 -7 -7 -7 -7 -7 -8 -7 -7 -7 -7 -7 -7 -7 -7 -7 -7 -7 -7 -7 -7 -7 -7 -7 -7 -8 -8 -8 -8 -8 -8 -8 -8 -8 -8 -7 -7 -7 -7 -8 -8 -7 -8 -8 -8 -8 -8 -7 -7 -7 -8 -8
-7 -7 -7 -7 -7 -7 -7 -8 -8 -8 -8 -8 -8 -8 -8 -7 -7 -7 -7 -8 -8 -8 -8 -7 -7 -8 -8 -8 -8 -8 -8 -8 -7 -7 -7 -7 -7 -7 -7 -7 -7 -7 -7 -7 -8 -8 -8 -8 -8 -8 -8 -8 -8 -8 -8 -8 -8 -8 -7 -7 -7 -7 -7 -7 -7 -8 -8 -8 -8 -7 -7 -7 -8 -8
-7 -7 -7 -7 -7 -7 -7 -7 -8 -8 -7 -8 -8 -7 -7 -7 -7 -7 -7 -8 -8 -8 -8 -8 -7 -7 -8 -8 -8 -8 -8 -7 -7 -7 -7 -7 -7 -7 -7 -8 -8 -7 -8 -8 -8 -8 -8 -8 -8 -8 -8 -8 -8 -8 -8 -8 -8 -8 -8 -7 -7 -7 -7 -7 -7 -8 -8 -8 -8 -8 -8 -8 -8 -9
Height
5976 5976 5977 5977 5977 5978 5979 5979 5980 5981 5982 5983 5984 5984 5985 5986 5986 5986 5987 5987 5988 5988 5988 5989 5989 5989 5990 5990 5990 5990 5991 5991 5991 5991 5990 5990 5989 5988 5987 5986 5985 5985 5984 5983 5982 5981 5979 5977 5975 5973 5971 5970 5967 5965 5963 5962 5960 5957 5955 5952 5949 5946 5943 5941 5938 5936 5933 5930 5928 5926 5923 5921 5918 5916
5976 5976 5977 5977 5978 5978 5978 5979 5980 5980 5981 5982 5983 5984 5985 5985 5986 5986 5987 5987 5988 5988 5988 5989 5989 5989 5990 5990 5990 5990 5991 5991 5990 5990 5990 5990 5989 5988 5987 5986 5985 5985 5984 5983 5982 5981 5979 5977 5975 5973 5971 5970 5968 5966 5964 5962 5960 5958 5955 5953 5950 5947 5945 5942 5940 5937 5934 5932 5929 5927 5925 5923 5921 5918
5976 5977 5977 5977 5978 5978 5978 5979 5979 5980 5981 5981 5982 5983 5984 5985 5986 5986 5987 5987 5988 5988 5988 5989 5989 5990 5990 5990 5990 5990 5990 5990 5990 5990 5990 5990 5989 5989 5987 5986 5985 5984 5984 5983 5982 5980 5979 5977 5975 5973 5972 5970 5968 5966 5964 5962 5960 5958 5956 5954 5951 5949 5947 5944 5941 5938 5936 5933 5931 5929 5927 5925 5923 5920
5976 5976 5977 5977 5978 5978 5978 5979 5979 5980 5980 5981 5982 5983 5984 5984 5985 5986 5987 5987 5987 5988 5988 5988 5989 5989 5990 5990 5990 5990 5990 5989 5989 5990 5989 5989 5989 5988 5987 5986 5985 5984 5983 5982 5981 5980 5978 5976 5975 5973 5971 5970 5968 5966 5964 5962 5961 5959 5957 5954 5952 5950 5948 5945 5942 5940 5937 5934 5932 5930 5928 5926 5924 5922
5975 5976 5976 5977 5977 5978 5978 5978 5979 5979 5980 5981 5981 5982 5983 5984 5984 5985 5986 5986 5987 5987 5987 5988 5988 5988 5989 5989 5989 5989 5989 5989 5989 5989 5988 5988 5987 5987 5987 5986 5984 5983 5982 5981 5980 5979 5977 5976 5974 5973 5971 5969 5967 5966 5964 5963 5961 5959 5957 5955 5953 5951 5948 5946 5944 5941 5938 5935 5933 5932 5930 5928 5926 5923
5975 5975 5976 5976 5977 5977 5978 5978 5979 5979 5980 5980 5981 5982 5982 5983 5984 5984 5985 5985 5986 5986 5986 5987 5987 5987 5988 5988 5988 5988 5988 5988 5988 5988 5987 5987 5986 5986 5986 5985 5984 5982 5981 5980 5979 5978 5976 5975 5974 5972 5971 5969 5967 5965 5964 5963 5961 5959 5958 5956 5954 5952 5949 5947 5944 5942 5939 5936 5934 5933 5931 5929 5927 5925
5975 5975 5975 5976 5976 5977 5977 5978 5978 5979 5980 5980 5981 5981 5982 5982 5983 5983 5984 5984 5985 5985 5985 5985 5985 5986 5986 5986 5986 5986 5986 5986 5986 5986 5986 5985 5985 5984 5984 5984 5983 5981 5980 5979 5978 5977 5975 5974 5973 5971 5970 5968 5966 5965 5964 5962 5961 5959 5958 5956 5954 5952 5950 5947 5945 5943 5940 5937 5935 5934 5932 5930 5928 5926
5975 5975 5975 5975 5976 5976 5977 5978 5978 5979 5980 5980 5981 5981 5981 5982 5982 5982 5983 5983 5983 5983 5984 5984 5984 5984 5984 5984 5984 5984 5984 5984 5984 5984 5984 5984 5983 5982 5982 5982 5981 5980 5979 5978 5977 5976 5974 5973 5971 5970 5969 5967 5965 5964 5963 5962 5960 5959 5958 5956 5954 5952 5950 5948 5946 5943 5941 5939 5937 5935 5933 5931 5929 5928
5975 5975 5975 5975 5975 5976 5977 5977 5978 5978 5979 5979 5980 5980 5981 5981 5981 5982 5982 5982 5982 5982 5982 5982 5982 5982 5982 5982 5982 5982 5982 5982 5982 5982 5982 5982 5981 5981 5980 5980 5980 5979 5978 5977 5976 5974 5973 5971 5970 5969 5967 5966 5964 5963 5962 5961 5960 5958 5957 5956 5954 5952 5950 5948 5946 5944 5942 5939 5938 5936 5934 5932 5930 5929
5974 5974 5974 5975 5975 5976 5976 5977 5977 5978 5978 5979 5979 5980 5980 5980 5981 5981 5981 5981 5981 5981 5980 5980 5980 5980 5980 5980 5979 5980 5980 5980 5980 5980 5980 5979 5979 5979 5978 5978 5978 5978 5977 5976 5974 5973 5971 5970 5969 5968 5966 5965 5963 5962 5961 5960 5958 5957 5956 5955 5953 5952 5950 5948 5946 5944 5942 5940 5938 5936 5935 5933 5931 5930
5973 5973 5974 5974 5975 5975 5976 5977 5977 5977 5978 5978 5979 5979 5979 5980 5980 5980 5980 5980 5980 5979 5979 5978 5978 5978 5978 5978 5977 5977 5978 5977 5977 5977 5977 5977 5976 5976 5976 5976 5975 5976 5975 5975 5973 5971 5970 5968 5967 5966 5965 5963 5962 5961 5959 5958 5957 5956 5955 5954 5952 5951 5949 5948 5946 5944 5942 5940 5939 5937 5935 5933 5932 5930
5972 5972 5973 5974 5974 5975 5976 5976 5977 5977 5977 5978 5978 5978 5979 5979 5979 5979 5979 5979 5979 5978 5978 5977 5977 5976 5976 5976 5976 5976 5976 5976 5976 5975 5975 5974 5974 5974 5973 5973 5973 5973 5973 5972 5971 5969 5968 5966 5965 5964 5963 5962 5961 5959 5958 5956 5955 5954 5953 5952 5951 5950 5949 5947 5945 5944 5942 5940 5939 5937 5935 5934 5932 5931
5970 5971 5972 5972 5973 5974 5975 5975 5976 5976 5976 5977 5977 5978 5978 5978 5978 5978 5978 5978 5978 5977 5977 5977 5976 5975 5975 5975 5974 5974 5974 5974 5974 5974 5973 5972 5972 5972 5971 5971 5971 5970 5970 5969 5968 5967 5966 5965 5964 5963 5962 5961 5959 5958 5956 5955 5953 5952 5951 5950 5949 5948 5947 5946 5945 5943 5942 5940 5939 5937 5936 5934 5932 5931
5968 5969 5970 5971 5972 5972 5973 5974 5974 5975 5975 5975 5976 5976 5977 5977 5977 5977 5977 5977 5977 5976 5976 5976 5975 5974 5974 5973 5973 5973 5973 5973 5972 5972 5971 5971 5970 5970 5969 5969 5969 5968 5967 5966 5966 5964 5963 5962 5962 5961 5960 5959 5957 5956 5955 5953 5952 5950 5949 5948 5947 5947 5946 5945 5944 5943 5941 5940 5938 5937 5935 5934 5932 5931
5967 5968 5969 5969 5970 5971 5971 5972 5972 5973 5973 5973 5974 5974 5975 5975 5975 5976 5976 5975 5975 5975 5975 5974 5974 5973 5972 5972 5972 5972 5971 5971 5971 5970 5970 5969 5969 5968 5967 5967 5966 5966 5965 5964 5963 5962 5961 5959 5959 5959 5958 5956 5955 5954 5953 5951 5950 5949 5947 5946 5945 5945 5944 5944 5943 5941 5940 5939 5938 5936 5935 5934 5932 5930
5965 5966 5967 5968 5969 5969 5970 5970 5971 5971 5971 5972 5972 5972 5973 5973 5974 5974 5974 5974 5973 5973 5973 5972 5972 5971 5971 5970 5970 5970 5970 5970 5969 5969 5968 5967 5967 5966 5965 5965 5964 5963 5962 5962 5960 5959 5958 5957 5956 5956 5955 5954 5953 5952 5951 5950 5948 5947 5946 5944 5944 5943 5942 5942 5941 5940 5939 5938 5937 5935 5934 5933 5931 5930
5963 5964 5965 5966 5967 5967 5968 5968 5969 5969 5969 5970 5970 5971 5971 5972 5972 5972 5972 5972 5971 5971 5971 5971 5970 5969 5969 5969 5968 5968 5968 5968 5968 5967 5966 5966 5965 5964 5963 5963 5962 5961 5960 5959 5958 5957 5956 5954 5953 5953 5953 5952 5951 5950 5949 5948 5947 5946 5944 5943 5942 5941 5940 5940 5939 5939 5938 5937 5935 5934 5933 5932 5931 5929
5962 5962 5963 5964 5965 5965 5966 5967 5967 5967 5967 5968 5968 5969 5970 5970 5970 5970 5970 5970 5969 5969 5969 5969 5968 5967 5967 5967 5967 5966 5966 5966 5966 5965 5965 5964 5963 5962 5961 5961 5960 5959 5958 5957 5956 5955 5953 5952 5951 5951 5951 5950 5949 5948 5947 5946 5945 5944 5943 5941 5940 5939 5938 5938 5937 5937 5936 5935 5934 5932 5931 5930 5929 5928
5960 5960 5961 5962 5963 5963 5964 5965 5965 5965 5965 5965 5966 5967 5968 5968 5968 5968 5968 5967 5967 5967 5967 5967 5966 5965 5965 5965 5965 5964 5964 5964 5964 5963 5963 5962 5961 5960 5959 5958 5957 5956 5956 5955 5954 5953 5951 5950 5950 5949 5948 5948 5947 5946 5945 5944 5943 5942 5941 5940 5939 5937 5936 5935 5935 5934 5934 5933 5932 5930 5929 5928 5928 5927
5957 5958 5959 5960 5960 5961 5962 5962 5962 5962 5962 5963 5964 5965 5965 5965 5966 5966 5966 5965 5964 5964 5964 5964 5964 5963 5962 5962 5962 5962 5962 5962 5961 5961 5960 5959 5959 5958 5958 5956 5955 5954 5953 5952 5951 5951 5949 5949 5948 5947 5946 5946 5945 5944 5943 5941 5941 5940 5939 5938 5937 5936 5934 5933 5932 5932 5931 5930 5929 5928 5928 5927 5926 5925
5955 5955 5956 5957 5958 5959 5960 5960 5959 5959 5959 5960 5961 5962 5962 5963 5963 5964 5963 5962 5961 5961 5961 5962 5961 5961 5960 5960 5960 5960 5959 5959 5958 5958 5958 5957 5956 5956 5956 5955 5953 5952 5951 5950 5949 5949 5948 5947 5946 5945 5944 5944 5943 5942 5941 5940 5938 5938 5936 5935 5934 5933 5932 5931 5930 5929 5929 5928 5927 5926 5926 5925 5924 5923
5952 5952 5953 5954 5955 5957 5957 5957 5956 5956 5956 5957 5958 5958 5959 5960 5961 5961 5960 5959 5958 5958 5958 5959 5959 5959 5958 5957 5957 5957 5956 5956 5955 5955 5955 5954 5954 5954 5953 5952 5951 5950 5948 5947 5947 5946 5945 5945 5944 5942 5941 5941 5940 5940 5939 5938 5936 5935 5934 5933 5932 5931 5930 5929 5928 5927 5926 5926 5925 5924 5923 5923 5922 5921
5948 5949 5950 5951 5952 5953 5954 5953 5953 5952 5953 5953 5954 5955 5955 5957 5958 5957 5955 5955 5955 5955 5955 5956 5955 5955 5955 5955 5954 5954 5954 5953 5953 5952 5952 5951 5951 5950 5950 5949 5949 5948 5946 5944 5944 5943 5942 5942 5941 5940 5939 5938 5938 5938 5936 5935 5934 5932 5931 5930 5929 5928 5927 5926 5925 5924 5923 5923 5922 5922 5921 5920 5920 5919
5945 5946 5946 5947 5948 5949 5949 5949 5949 5949 5949 5950 5950 5951 5952 5953 5953 5952 5951 5952 5952 5951 5952 5952 5952 5952 5952 5951 5951 5951 5950 5950 5949 5948 5948 5948 5947 5947 5947 5946 5945 5945 5943 5942 5942 5941 5940 5939 5938 5937 5936 5934 5934 5935 5934 5932 5931 5930 5928 5927 5926 5925 5924 5923 5922 5921 5920 5920 5919 5918 5918 5917 5917 5916
5942 5942 5943 5943 5944 5944 5945 5945 5944 5945 5945 5946 5947 5948 5949 5949 5948 5948 5947 5948 5948 5948 5948 5948 5948 5948 5948 5947 5947 5947 5946 5946 5946 5945 5945 5944 5944 5944 5943 5942 5942 5941 5940 5939 5939 5938 5937 5936 5934 5934 5933 5931 5930 5930 5931 5929 5927 5926 5925 5924 5923 5922 5921 5920 5919 5918 5917 5917 5916 5915 5914 5914 5913 5913
5938 5938 5938 5939 5939 5939 5940 5940 5940 5941 5941 5942 5943 5944 5945 5945 5944 5944 5944 5944 5945 5945 5945 5944 5944 5944 5943 5943 5942 5942 5942 5941 5942 5942 5941 5941 5941 5940 5939 5938 5938 5937 5936 5936 5936 5935 5934 5933 5931 5930 5929 5928 5927 5926 5926 5926 5924 5923 5922 5921 5920 5919 5918 5917 5916 5915 5914 5913 5912 5911 5911 5910 5910 5909
5933 5933 5934 5934 5934 5934 5935 5935 5936 5937 5937 5939 5940 5940 5940 5940 5940 5940 5940 5941 5940 5940 5940 5940 5940 5939 5938 5938 5937 5937 5937 5937 5937 5938 5937 5937 5937 5936 5936 5935 5934 5933 5932 5932 5932 5931 5930 5929 5928 5927 5926 5925 5924 5923 5922 5922 5921 5919 5918 5917 5916 5915 5914 5913 5912 5911 5910 5909 5908 5908 5907 5906 5906 5905
5927 5928 5928 5928 5928 5929 5930 5931 5931 5932 5933 5934 5936 5936 5935 5935 5936 5936 5936 5936 5935 5935 5936 5936 5935 5935 5934 5933 5932 5932 5933 5933 5933 5933 5933 5933 5932 5932 5932 5931 5930 5930 5929 5928 5928 5927 5926 5925 5924 5923 5922 5921 5921 5920 5918 5918 5917 5916 5914 5913 5913 5912 5911 5909 5909 5907 5906 5905 5904 5903 5903 5902 5902 5901
5921 5922 5922 5922 5923 5924 5925 5926 5927 5928 5929 5930 5930 5931 5930 5930 5931 5931 5931 5931 5930 5931 5931 5931 5931 5930 5929 5929 5928 5927 5928 5928 5928 5928 5928 5928 5928 5927 5927 5927 5926 5926 5925 5924 5923 5923 5922 5921 5920 5919 5918 5917 5917 5916 5915 5914 5913 5912 5910 5909 5909 5908 5907 5906 5905 5903 5902 5901 5900 5900 5899 5898 5897 5897
5914 5915 5916 5917 5918 5920 5921 5922 5923 5924 5924 5925 5925 5925 5925 5925 5926 5927 5927 5926 5926 5926 5926 5926 5926 5926 5925 5924 5924 5923 5923 5924 5923 5923 5922 5923 5923 5922 5922 5922 5922 5922 5921 5920 5919 5918 5918 5917 5916 5915 5914 5913 5913 5912 5911 5910 5910 5908 5906 5905 5905 5904 5903 5902 5901 5899 5898 5897 5896 5895 5895 5894 5893 5893
5907 5910 5912 5914 5915 5916 5918 5919 5920 5920 5920 5920 5920 5920 5920 5920 5921 5921 5922 5922 5922 5922 5921 5921 5921 5921 5920 5920 5919 5919 5918 5919 5919 5918 5918 5918 5917 5917 5917 5917 5917 5917 5916 5916 5915 5914 5913 5912 5911 5910 5910 5909 5908 5908 5907 5906 5906 5905 5903 5901 5901 5900 5900 5898 5897 5895 5893 5892 5891 5891 5890 5889 5889 5888
5905 5908 5910 5912 5913 5913 5914 5915 5916 5916 5916 5915 5915 5916 5916 5916 5916 5916 5917 5918 5918 5917 5917 5916 5917 5917 5917 5916 5915 5914 5913 5914 5915 5915 5914 5913 5912 5911 5911 5912 5912 5912 5912 5911 5910 5909 5908 5908 5907 5906 5905 5905 5904 5903 5902 5902 5901 5901 5900 5898 5897 5896 5896 5894 5893 5891 5890 5888 5887 5886 5885 5884 5884 5883
5906 5907 5907 5908 5909 5910 5910 5911 5912 5912 5912 5912 5911 5912 5912 5912 5912 5912 5913 5913 5914 5913 5912 5912 5913 5914 5913 5913 5911 5910 5909 5909 5910 5910 5910 5909 5908 5907 5906 5907 5907 5906 5906 5906 5906 5905 5903 5903 5902 5901 5900 5900 5899 5898 5898 5897 5897 5896 5895 5894 5893 5892 5891 5890 5889 5887 5886 5885 5883 5882 5881 5880 5879 5878
5904 5904 5904 5905 5905 5906 5907 5907 5908 5908 5908 5908 5908 5908 5908 5908 5908 5908 5909 5909 5909 5909 5909 5909 5909 5909 5909 5909 5908 5907 5906 5905 5905 5905 5905 5905 5904 5903 5902 5902 5902 5901 5901 5900 5901 5901 5899 5898 5897 5896 5895 5895 5894 5894 5893 5893 5892 5891 5890 5889 5888 5887 5886 5885 5884 5883 5882 5881 5880 5879 5878 5877 5876 5875
5901 5901 5901 5901 5901 5902 5903 5904 5904 5905 5904 5904 5904 5904 5904 5904 5904 5904 5904 5905 5905 5905 5905 5905 5905 5905 5905 5905 5904 5903 5902 5901 5900 5900 5900 5900 5900 5898 5898 5897 5897 5896 5895 5895 5895 5895 5895 5893 5891 5891 5891 5890 5889 5889 5888 5887 5886 5885 5885 5884 5884 5883 5882 5880 5879 5878 5878 5877 5876 5875 5875 5874 5873 5872
5896 5897 5897 5897 5898 5898 5899 5899 5900 5900 5900 5900 5900 5900 5900 5900 5900 5900 5900 5900 5900 5901 5902 5902 5902 5901 5901 5901 5900 5899 5898 5897 5897 5896 5896 5896 5896 5894 5894 5893 5892 5891 5890 5889 5889 5889 5890 5888 5887 5886 5885 5884 5884 5884 5882 5880 5879 5879 5879 5879 5879 5878 5877 5876 5874 5873 5873 5872 5871 5870 5870 5870 5869 5868
5889 5891 5892 5894 5894 5894 5895 5895 5895 5895 5895 5896 5896 5896 5896 5896 5895 5895 5895 5895 5895 5896 5897 5897 5897 5898 5897 5897 5896 5895 5894 5893 5893 5893 5892 5892 5891 5890 5889 5888 5887 5885 5885 5884 5883 5884 5885 5884 5882 5881 5880 5878 5878 5878 5876 5876 5877 5875 5874 5874 5875 5874 5873 5871 5870 5869 5868 5867 5866 5865 5864 5864 5865 5864
5881 5884 5886 5888 5889 5889 5890 5890 5890 5890 5890 5891 5892 5892 5892 5891 5891 5890 5890 5890 5890 5891 5891 5892 5892 5893 5893 5892 5891 5891 5890 5889 5888 5888 5888 5887 5886 5885 5884 5883 5882 5881 5880 5879 5878 5879 5879 5879 5878 5876 5874 5872 5871 5871 5871 5873 5874 5872 5869 5868 5869 5870 5868 5866 5865 5865 5864 5862 5861 5860 5859 5858 5859 5858
5875 5877 5879 5881 5882 5883 5883 5884 5884 5885 5885 5886 5887 5887 5887 5887 5886 5885 5885 5885 5885 5885 5885 5886 5887 5887 5887 5886 5886 5885 5885 5884 5884 5883 5882 5882 5881 5880 5879 5878 5877 5875 5874 5874 5874 5874 5875 5873 5871 5870 5869 5867 5865 5864 5865 5868 5868 5866 5864 5862 5862 5863 5863 5861 5860 5860 5859 5857 5855 5854 5853 5853 5852 5852
5868 5870 5872 5874 5875 5876 5877 5878 5878 5879 5880 5880 5880 5881 5881 5882 5882 5881 5881 5881 5880 5880 5880 5880 5881 5882 5881 5881 5880 5879 5879 5879 5879 5878 5877 5876 5876 5875 5873 5872 5872 5870 5868 5868 5869 5869 5869 5868 5865 5864 5862 5861 5858 5857 5858 5860 5861 5860 5858 5856 5854 5855 5855 5855 5855 5854 5853 5852 5850 5848 5847 5847 5846 5846
5861 5863 5865 5867 5868 5869 5871 5872 5873 5874 5874 5874 5874 5875 5875 5876 5876 5876 5875 5876 5876 5876 5875 5875 5875 5875 5875 5874 5873 5873 5873 5873 5873 5872 5871 5871 5871 5870 5868 5866 5866 5865 5863 5862 5863 5863 5862 5862 5861 5858 5856 5854 5853 5852 5853 5853 5853 5852 5852 5851 5849 5848 5848 5849 5849 5848 5847 5846 5844 5842 5841 5840 5840 5839
5855 5856 5858 5860 5861 5862 5864 5866 5867 5868 5868 5868 5869 5869 5870 5870 5870 5870 5870 5870 5870 5870 5870 5869 5868 5868 5868 5867 5866 5866 5866 5866 5866 5865 5865 5865 5864 5864 5863 5861 5860 5859 5857 5856 5857 5857 5857 5857 5856 5852 5849 5849 5848 5847 5846 5846 5845 5844 5844 5845 5844 5842 5842 5843 5843 5842 5841 5840 5838 5836 5835 5834 5833 5833
5848 5850 5851 5852 5853 5855 5857 5859 5860 5861 5862 5862 5862 5864 5864 5864 5864 5864 5864 5864 5864 5864 5864 5863 5862 5861 5861 5861 5860 5860 5860 5860 5859 5858 5858 5858 5858 5857 5856 5855 5854 5853 5851 5850 5850 5850 5850 5849 5848 5846 5844 5843 5842 5841 5839 5839 5837 5836 5836 5837 5838 5837 5836 5835 5835 5835 5834 5833 5831 5830 5828 5827 5827 5825
5842 5844 5845 5846 5846 5848 5850 5851 5852 5854 5854 5855 5856 5857 5857 5857 5857 5858 5858 5857 5858 5858 5858 5856 5855 5854 5854 5854 5853 5854 5854 5854 5853 5852 5851 5851 5851 5850 5849 5848 5847 5847 5846 5844 5843 5842 5841 5841 5840 5839 5837 5836 5836 5835 5833 5831 5830 5828 5828 5828 5828 5828 5828 5827 5826 5827 5826 5825 5824 5823 5821 5820 5819 5818
5835 5837 5839 5840 5840 5841 5842 5843 5844 5846 5847 5848 5849 5850 5850 5850 5851 5851 5851 5851 5851 5851 5851 5849 5848 5847 5847 5847 5847 5848 5848 5847 5847 5847 5845 5844 5844 5843 5842 5841 5840 5840 5839 5837 5836 5834 5833 5833 5832 5832 5830 5828 5828 5827 5825 5823 5822 5821 5820 5819 5818 5818 5819 5819 5819 5819 5818 5818 5818 5816 5814 5813 5812 5810
Wind_Speed
12 11 12 12 12 11 11 11 10 10 10 9 9 8 8 7 7 8 8 9 9 9 9 9 8 8 8 8 8 7 7 7 7 6 6 7 8 7 7 8 9 10 11 13 13 14 15 16 17 19 19 20 21 21 22 22 23 24 25 27 28 29 29 29 27 24 22 23 24 26 27 31 33 35
11 11 11 12 12 11 11 10 10 10 10 9 9 9 9 8 8 7 7 7 8 8 8 8 7 7 6 5 5 5 4 4 4 4 4 4 5 5 5 6 8 9 10 12 13 14 14 14 16 18 18 19 20 20 20 21 22 23 24 26 27 28 28 28 26 23 22 22 23 24 26 28 31 33
11 11 11 11 11 11 11 10 10 10 10 10 9 9 9 9 8 8 7 6 6 6 6 6 6 5 5 4 3 3 2 1 2 2 1 1 2 3 3 4 6 7 9 11 13 14 14 15 16 16 17 18 19 20 20 20 21 22 24 25 25 26 26 26 26 23 21 21 21 22 24 26 28 30
10 11 11 11 11 11 11 11 10 10 10 10 10 9 9 9 8 8 8 7 7 7 6 6 5 5 4 3 3 2 2 1 1 1 1 1 2 2 3 4 5 6 8 10 12 13 14 16 16 16 16 17 19 19 20 20 21 22 23 23 24 24 25 25 25 23 21 20 20 20 21 23 26 28
11 10 10 11 11 11 11 11 10 10 10 9 9 9 9 9 9 8 8 8 8 8 7 7 7 6 5 5 4 4 4 4 3 3 3 3 3 3 4 5 5 6 8 10 11 13 14 16 17 17 17 17 18 19 19 20 20 21 21 22 22 23 23 24 24 23 22 20 19 19 19 20 23 25
11 11 11 11 11 11 11 11 10 10 9 9 9 8 8 8 8 8 9 8 8 8 8 8 8 7 7 6 6 6 6 6 6 6 5 5 6 6 6 7 7 7 9 10 11 12 14 15 17 18 18 17 18 19 18 19 19 20 20 20 21 21 22 22 22 22 22 22 20 18 17 18 20 22
11 11 11 11 10 10 11 10 10 10 9 9 8 8 8 8 8 8 8 8 8 9 9 8 8 8 7 7 8 8 8 8 8 8 8 7 8 9 8 8 8 9 10 11 12 13 14 15 16 18 18 18 17 18 18 18 18 19 19 19 20 20 20 21 21 21 21 22 21 19 17 17 18 20
11 10 10 10 10 10 10 10 10 9 9 9 9 8 8 8 8 8 9 9 9 9 9 9 9 9 9 8 8 9 9 10 10 10 9 9 9 10 10 9 9 10 11 12 13 14 14 15 16 17 18 17 17 17 17 17 17 17 18 18 18 19 19 20 20 21 21 21 21 20 19 17 17 18
10 10 10 10 10 9 9 9 9 9 9 9 9 9 9 9 9 10 10 10 10 10 10 10 10 11 11 11 10 10 11 11 11 11 11 10 10 10 11 11 10 11 12 14 14 14 15 15 16 17 17 17 17 17 17 17 17 17 17 18 18 18 18 18 19 20 20 21 20 20 20 19 17 17
11 11 10 10 10 9 8 8 8 8 7 7 7 7 7 8 8 9 10 10 10 11 11 11 11 11 12 13 12 12 12 12 12 12 12 12 11 11 11 12 11 10 11 13 15 15 15 15 16 16 16 17 17 17 17 17 16 16 16 17 17 17 17 18 18 19 20 20 20 20 20 19 19 18
12 11 11 11 10 9 8 8 7 7 6 6 6 5 5 6 6 7 7 8 9 9 10 11 11 11 11 12 12 12 12 12 12 12 13 14 13 11 10 11 11 10 10 11 14 15 15 15 16 16 15 16 17 17 17 17 16 16 16 16 16 16 16 17 17 17 18 19 19 19 19 19 19 19
13 12 12 11 10 9 8 7 7 7 6 6 6 5 5 5 5 6 6 7 8 8 9 10 11 11 10 11 11 10 10 10 10 11 13 14 14 12 10 10 10 11 10 10 12 15 15 15 16 16 15 15 16 17 17 17 17 16 15 15 15 16 15 16 16 16 17 18 18 19 19 19 19 19
14 13 13 12 11 10 9 8 8 8 7 7 7 6 6 6 6 7 7 7 8 9 10 11 12 12 11 11 11 9 8 8 8 9 11 13 13 12 11 10 10 11 11 10 11 13 14 14 14 14 14 14 15 16 16 16 17 16 16 15 15 15 15 15 15 15 15 16 17 18 18 18 19 19
15 14 13 13 12 11 10 9 10 9 9 9 9 8 8 7 7 8 8 9 10 10 10 12 12 13 13 13 12 11 10 8 8 9 10 12 12 12 12 11 10 10 11 12 12 13 14 14 13 13 13 13 14 15 15 15 16 16 16 16 15 14 14 15 15 14 15 15 15 16 17 17 18 18
16 16 15 14 13 12 12 12 11 11 11 11 11 11 10 9 8 9 10 10 10 11 11 12 13 14 15 15 13 12 11 10 9 9 10 11 12 12 12 12 11 11 11 12 13 14 15 16 14 13 13 14 13 14 15 15 16 16 17 17 16 15 14 14 14 14 14 14 14 14 15 16 16 17
18 17 17 16 15 14 14 14 14 13 13 13 13 13 12 11 10 10 10 11 11 11 12 12 14 14 15 15 15 13 12 11 10 10 10 11 12 12 13 14 14 12 11 11 13 14 16 17 16 14 13 14 14 14 14 15 15 16 17 17 17 16 15 14 14 15 14 14 14 14 14 14 15 15
20 19 19 18 17 17 17 17 16 16 16 16 16 15 14 13 13 13 12 12 13 12 12 13 14 15 15 15 15 14 12 11 11 11 11 12 13 13 13 14 15 14 13 13 13 15 16 17 17 15 13 13 14 14 15 15 15 16 17 18 18 17 16 15 14 15 15 15 14 14 14 14 14 14
22 22 21 21 20 20 20 19 19 20 20 19 18 17 16 16 16 15 15 15 15 14 14 14 15 17 16 15 15 15 13 12 12 12 12 13 14 15 15 15 16 16 16 15 14 16 17 18 18 17 14 14 15 15 16 16 16 16 17 18 19 19 18 17 15 15 15 15 15 15 14 14 14 13
23 24 24 24 23 23 23 22 23 23 23 23 21 20 19 18 18 18 17 18 18 17 16 15 16 18 18 17 17 17 16 15 15 14 14 14 15 16 16 16 17 17 17 17 16 17 18 18 19 18 17 16 16 16 17 18 17 17 18 18 19 19 19 18 17 16 16 16 16 16 16 15 15 14
25 25 26 26 26 26 26 26 26 27 27 26 25 24 23 22 21 20 20 21 21 20 19 18 18 19 19 19 19 19 19 19 18 18 18 18 18 17 16 17 18 18 18 18 19 19 20 20 20 21 19 18 18 17 18 20 19 19 19 19 19 19 19 19 19 18 17 16 16 16 17 17 16 16
26 26 27 28 28 28 28 29 30 31 31 29 28 27 27 26 25 23 24 24 25 24 22 20 20 20 21 21 21 21 21 21 21 21 21 22 21 19 18 18 19 20 20 20 21 22 23 22 22 23 23 22 20 19 19 20 21 20 21 20 19 19 19 20 20 20 19 18 18 17 17 18 18 18
27 27 28 28 28 29 30 31 33 34 33 32 31 30 30 29 28 27 28 29 29 27 25 23 22 21 22 22 23 23 23 24 23 23 23 24 23 21 20 20 19 20 22 23 23 23 24 24 24 25 25 25 23 22 21 21 22 22 22 21 21 20 20 21 21 21 21 20 20 19 19 19 19 19
29 29 29 28 28 28 30 32 34 35 35 34 33 33 32 31 31 32 33 32 32 31 29 28 26 24 24 24 25 25 25 25 25 25 25 25 24 23 23 23 22 22 24 25 25 25 26 25 25 26 27 27 25 23 23 23 23 23 23 23 22 22 22 22 22 23 22 22 21 21 20 20 20 20
30 29 29 29 29 29 30 32 34 35 35 34 34 33 32 32 33 34 34 33 32 32 31 30 30 29 28 28 28 28 28 27 27 28 28 27 27 26 25 26 25 25 27 27 27 27 27 27 27 27 28 29 28 25 24 25 25 24 24 24 23 23 23 23 23 23 23 23 23 22 22 21 22 22
30 29 30 30 30 31 31 33 34 34 34 34 34 32 32 32 33 34 34 33 32 31 30 30 30 30 30 31 31 31 31 31 31 30 30 30 29 29 29 29 28 29 30 29 29 29 29 28 29 28 28 29 30 28 25 25 26 26 25 25 25 24 23 23 23 23 23 24 24 24 23 23 23 23
30 30 31 31 32 32 33 33 34 34 34 34 33 32 32 33 33 33 33 32 31 30 30 30 29 30 31 32 32 33 34 34 33 33 32 32 32 31 31 32 31 31 32 31 30 30 31 30 31 31 29 30 31 30 27 26 26 27 26 26 26 25 24 23 23 23 23 23 24 24 24 24 24 24
32 32 32 32 33 34 34 34 34 34 33 33 31 31 32 32 33 32 32 31 31 30 29 29 29 29 30 31 33 33 34 34 34 33 33 33 33 33 33 34 34 34 34 34 32 32 33 33 33 33 32 31 31 30 29 28 27 28 27 27 26 26 25 25 24 24 23 23 23 24 25 25 25 25
33 33 33 34 35 35 35 35 34 34 33 32 31 31 32 32 32 31 31 31 31 31 29 29 28 29 30 31 32 33 33 33 33 33 34 33 34 34 34 34 35 35 35 35 34 33 34 34 35 35 34 34 32 31 31 30 29 29 29 28 27 27 27 26 25 24 23 23 23 24 24 25 26 27
34 34 34 34 35 34 34 34 34 33 33 32 31 31 32 32 32 32 32 33 33 32 31 30 29 29 30 31 32 33 32 32 32 33 33 33 33 34 35 35 35 35 36 36 35 35 34 35 36 36 36 36 34 33 33 33 32 31 31 29 27 27 28 28 26 25 24 23 23 24 24 25 26 27
34 34 34 34 33 33 32 32 32 31 31 31 31 32 33 33 32 32 32 33 34 33 33 32 31 30 30 31 32 32 32 32 32 33 34 34 34 34 35 35 34 34 35 36 36 36 35 36 37 37 37 37 36 36 36 35 33 33 32 29 26 26 27 28 28 27 26 25 25 25 25 25 26 27
35 33 32 31 30 29 29 28 28 28 29 29 30 31 32 32 32 32 33 33 33 34 34 34 33 32 32 33 33 34 33 32 32 34 35 34 34 35 35 34 34 34 35 35 35 36 36 36 36 37 36 36 37 37 37 36 34 32 30 28 26 26 27 28 28 28 28 27 27 27 28 28 27 28
31 28 26 24 24 24 24 24 25 26 27 29 29 30 30 31 31 32 32 32 32 33 35 35 34 33 33 35 35 36 36 34 33 34 34 34 34 35 34 32 32 33 34 35 36 37 37 36 36 36 35 36 36 37 37 36 34 32 30 30 29 28 26 26 28 29 29 28 29 29 30 30 30 29
26 25 24 22 22 23 22 22 23 25 26 27 28 28 29 29 30 30 30 29 29 31 33 34 33 32 33 34 36 37 38 36 35 34 33 32 33 34 33 32 31 32 33 34 36 37 38 37 36 36 36 36 36 37 38 36 34 32 32 33 32 30 27 27 28 29 29 29 29 31 31 31 31 31
23 25 26 26 27 28 26 25 25 26 26 27 27 27 27 27 28 28 28 28 28 29 30 31 31 31 31 32 34 35 36 37 36 35 33 31 31 32 33 32 32 32 33 34 35 36 38 39 38 37 36 36 37 38 38 37 34 32 33 33 32 30 29 28 29 29 28 29 30 31 32 32 32 31
22 24 27 29 30 29 28 28 28 28 27 27 27 26 26 26 27 27 27 28 28 28 27 28 29 29 30 30 31 33 35 36 37 36 34 32 31 32 33 33 33 33 33 34 35 35 37 40 40 39 38 38 39 39 40 39 36 34 33 32 32 31 31 31 30 29 28 29 30 32 32 32 32 32
24 26 28 29 29 29 29 30 31 30 28 27 26 26 25 25 26 26 27 28 29 28 27 27 27 28 28 29 31 33 34 36 37 38 37 35 34 34 34 34 35 35 34 35 36 36 36 39 41 41 40 41 41 40 41 41 40 38 36 35 35 35 34 33 32 30 29 29 30 32 33 33 33 33
29 27 27 27 28 29 30 32 32 31 30 29 28 27 26 26 26 27 28 29 30 30 29 29 28 28 27 28 29 31 33 34 36 37 37 37 37 37 37 37 37 37 36 37 37 36 36 39 41 42 43 44 43 43 43 42 40 40 41 40 39 38 38 37 35 32 30 30 31 33 34 34 34 34
34 32 30 29 30 31 31 32 33 32 32 31 30 29 29 29 29 30 30 31 33 33 32 32 31 30 29 29 29 29 31 32 34 35 36 38 39 39 39 40 40 40 39 38 38 38 37 39 41 43 45 47 47 47 45 42 40 41 43 42 39 38 40 41 39 35 33 32 33 34 35 35 35 35
38 36 35 34 34 34 34 34 34 34 34 34 33 33 32 32 32 32 33 34 35 36 36 35 34 33 33 32 31 31 31 31 33 34 35 37 38 40 41 41 42 42 42 41 40 39 38 39 42 44 46 48 50 51 48 43 41 43 44 43 41 40 42 43 42 40 37 35 34 35 36 37 37 37
43 41 39 38 38 37 37 37 36 35 35 36 37 37 36 35 35 35 35 36 37 38 39 39 37 36 36 36 35 35 34 33 34 35 35 37 38 39 41 42 42 42 44 43 42 40 39 40 43 45 46 48 51 53 51 47 45 44 44 44 44 44 44 45 45 45 43 39 37 37 38 39 39 39
47 45 43 42 42 41 40 39 39 38 38 38 39 39 39 38 38 38 38 37 37 38 39 40 39 38 37 37 38 38 37 36 36 37 38 38 39 39 41 42 42 42 44 44 43 42 42 42 42 44 46 48 50 51 51 49 48 48 46 45 46 47 47 47 48 48 47 44 42 40 40 41 41 40
49 48 46 45 45 45 45 43 41 41 41 41 41 40 40 40 40 40 40 39 38 37 38 40 39 38 37 37 38 38 38 38 39 39 39 40 41 42 42 43 42 42 44 45 44 43 44 44 43 44 46 48 49 50 49 48 50 51 50 47 47 49 49 48 48 47 47 46 45 43 43 43 44 43
51 49 48 47 47 47 48 47 45 43 43 42 42 41 41 41 41 40 40 40 39 38 39 40 40 40 39 39 39 39 39 40 41 41 41 41 42 44 45 44 44 43 44 45 45 45 45 46 45 46 48 49 50 50 49 49 50 53 53 51 50 51 50 50 48 47 47 48 48 47 47 47 46 46
53 51 50 50 49 48 47 47 47 46 44 43 42 42 42 42 42 41 41 40 39 39 40 41 41 42 42 42 42 42 42 42 41 41 41 42 43 44 45 46 46 45 45 46 47 47 48 48 48 49 51 52 52 52 52 51 52 54 54 53 53 54 53 52 50 49 50 51 50 49 49 49 48 48
54 53 51 51 50 48 46 47 48 48 45 44 43 43 43 43 43 42 43 42 41 41 41 42 43 44 44 45 46 45 45 45 44 43 45 46 46 45 46 47 47 47 47 48 49 50 51 51 51 52 54 56 56 56 56 54 54 55 56 55 56 56 57 56 55 54 54 52 50 50 51 51 50 49
Wind_Direction
177 175 174 174 174 176 177 178 179 181 185 184 176 169 164 161 156 153 150 147 146 147 146 145 142 138 133 127 124 120 119 117 110 101 96 95 93 83 70 62 53 38 27 24 24 25 27 29 28 27 24 20 19 19 16 15 16 18 21 23 25 27 28 28 31 33 36 37 38 39 40 37 35 33
179 179 179 179 180 182 184 186 186 187 191 194 191 186 184 184 181 174 167 160 156 156 156 155 153 150 144 138 135 132 129 123 113 102 90 81 78 70 59 57 50 34 20 14 12 13 17 22 24 22 19 17 16 16 13 11 13 17 20 22 24 26 27 28 31 33 34 36 37 39 40 37 34 34
180 182 183 184 186 188 190 192 194 195 197 201 201 198 197 198 200 199 195 189 183 179 175 173 170 167 162 157 153 152 149 140 113 100 78 47 49 38 24 35 41 26 11 6 5 6 9 12 15 15 13 13 14 13 10 7 9 14 17 20 22 24 25 27 30 32 33 34 36 39 40 37 34 34
181 184 187 189 191 194 196 199 202 205 206 208 209 208 207 208 212 215 216 216 216 217 214 210 208 207 203 198 195 207 235 258 277 305 322 328 348 355 339 349 18 14 0 357 359 2 4 4 4 5 5 7 10 10 7 4 5 9 13 17 19 21 24 25 28 31 32 32 35 38 39 35 34 34
182 185 189 193 197 199 201 204 208 212 215 217 218 218 217 218 220 224 228 229 232 235 236 236 235 236 237 239 239 239 250 261 270 279 289 302 311 315 313 319 342 353 347 348 352 355 359 358 356 355 356 359 4 5 4 1 0 3 8 13 16 19 22 23 24 28 31 32 32 35 36 33 31 32
184 185 189 195 201 204 207 210 213 216 220 222 224 225 227 228 230 232 237 240 243 245 247 247 250 250 249 252 254 253 256 261 265 270 274 285 295 300 302 307 320 334 335 336 342 347 350 351 349 348 347 351 357 358 358 358 356 357 2 7 12 16 19 20 21 24 28 31 31 30 30 29 26 27
192 191 192 196 201 206 211 216 220 223 226 229 230 230 232 236 240 244 247 250 253 255 258 260 263 266 266 266 267 266 267 269 270 273 274 277 283 289 294 300 311 321 323 325 331 338 341 342 341 341 341 343 348 351 352 353 353 352 354 0 7 11 15 17 18 21 24 28 30 29 26 24 22 20
202 200 199 200 203 207 212 217 223 227 231 235 237 238 240 243 248 253 257 260 263 266 268 271 274 278 280 279 278 278 279 280 281 282 283 283 284 288 293 299 306 313 317 320 325 329 331 333 334 335 335 336 340 343 344 346 348 348 348 352 360 5 10 13 15 17 21 24 27 28 25 21 18 16
212 210 208 207 207 209 212 216 220 225 230 234 238 241 244 247 252 257 261 265 269 271 272 274 276 278 281 281 280 279 280 282 284 287 290 291 290 290 293 298 304 310 315 318 320 322 323 325 327 329 330 331 333 335 337 339 341 342 343 346 352 358 3 7 11 14 17 19 22 26 25 20 16 13
217 217 217 216 214 212 213 215 217 221 225 230 235 238 241 245 250 257 263 267 271 275 277 278 277 277 278 279 280 280 280 282 284 288 292 294 294 293 292 295 300 304 307 310 313 315 317 319 321 324 326 327 328 328 330 332 333 335 337 339 343 350 355 0 6 10 12 15 18 21 23 21 17 13
220 221 222 222 221 219 217 217 218 221 225 230 235 238 242 247 253 259 265 270 275 278 282 284 285 284 281 280 282 284 284 286 288 289 291 292 293 292 290 290 295 299 300 303 306 309 313 314 315 318 321 323 323 323 324 325 325 326 329 332 336 342 348 352 358 5 8 10 13 16 18 19 17 14
222 224 225 226 227 225 224 225 227 230 232 237 241 243 246 253 261 267 272 275 278 280 284 287 290 293 293 291 291 293 294 295 294 291 289 290 292 293 291 288 290 295 299 300 301 303 307 311 312 315 318 319 319 320 321 322 322 322 322 325 329 333 338 343 349 356 2 6 9 12 14 15 15 14
224 225 227 229 232 231 231 232 235 240 244 249 253 254 255 258 263 269 274 275 277 280 283 286 290 294 297 297 300 305 307 306 303 295 291 292 296 298 299 295 290 290 291 290 290 293 297 301 304 306 309 312 314 317 319 320 321 320 319 319 321 325 329 334 339 346 352 359 4 7 9 12 13 12
228 228 228 231 235 237 238 238 241 245 250 255 259 261 262 264 268 273 276 277 278 280 283 284 288 292 294 296 302 308 311 314 309 298 294 297 302 306 307 305 300 293 287 283 282 284 289 292 295 298 302 306 310 314 317 319 319 319 317 315 315 317 321 324 329 336 342 348 356 2 4 8 10 11
232 233 232 233 237 240 243 244 245 248 250 253 257 261 263 266 270 273 275 278 281 283 284 285 287 290 291 294 301 307 311 315 310 299 294 296 300 305 308 308 306 299 292 284 279 278 282 287 291 294 298 302 306 310 315 317 318 318 317 314 312 311 312 315 319 324 330 336 344 352 357 1 6 7
234 236 237 237 238 241 244 246 249 251 252 253 255 260 263 265 268 270 273 277 280 282 285 287 288 289 291 295 300 305 311 316 313 303 297 293 293 297 301 304 305 304 301 294 285 279 278 282 287 292 295 298 302 306 310 313 316 318 317 315 312 308 306 307 310 313 319 324 331 339 345 351 357 0
237 238 240 241 242 243 246 249 252 253 254 255 257 260 263 265 266 269 271 274 277 279 282 285 287 288 291 294 298 303 309 313 312 308 302 295 291 291 293 297 301 303 303 302 296 289 285 285 289 294 294 294 298 302 304 308 312 315 316 315 313 309 304 301 302 304 308 313 318 324 331 337 345 350
240 241 242 243 244 246 249 252 254 255 257 259 261 262 264 266 267 269 271 272 274 276 278 281 283 287 290 293 296 300 304 306 307 305 302 299 294 292 294 296 296 296 298 300 297 292 291 293 295 298 298 295 297 300 300 304 308 311 313 314 314 312 307 301 298 297 299 303 307 311 317 323 330 336
244 244 244 244 245 248 250 252 255 257 259 260 262 264 265 265 267 269 271 271 272 273 274 276 279 283 286 289 292 295 297 299 299 298 298 297 293 294 298 297 295 295 295 297 295 291 292 295 298 301 303 300 300 300 300 303 306 307 310 312 314 315 312 305 299 295 292 294 298 302 306 310 316 322
249 249 249 248 248 249 251 253 255 257 259 260 261 263 264 264 265 267 270 271 272 272 271 272 275 278 282 285 288 290 292 294 295 295 295 294 292 295 300 299 297 297 296 294 294 294 294 296 299 303 305 305 304 302 301 303 306 306 307 310 313 316 315 309 302 295 289 287 289 294 298 302 306 311
252 252 252 251 251 251 252 254 256 258 260 261 261 262 263 264 265 266 268 270 271 271 271 270 272 275 279 283 284 286 289 291 293 294 294 293 294 296 299 298 298 299 297 294 294 295 296 298 301 303 305 306 307 306 303 303 305 306 306 308 311 313 313 311 305 296 288 284 284 287 292 296 300 304
252 252 253 253 253 253 253 255 257 259 262 263 263 263 263 264 266 266 267 269 270 272 273 273 273 274 277 280 282 284 286 288 290 292 292 293 295 297 297 296 296 297 295 294 294 294 296 300 301 302 303 305 308 310 307 304 305 305 305 306 309 310 310 309 306 300 291 284 281 283 286 290 293 297
251 252 253 253 254 254 254 255 257 259 261 263 264 265 265 267 267 266 267 268 270 272 273 273 273 273 274 277 279 281 282 284 286 287 288 290 293 295 295 294 294 293 291 291 293 294 297 300 300 300 302 304 306 308 307 305 305 304 304 305 306 307 307 307 306 303 296 288 281 279 281 285 288 291
250 252 253 254 254 254 254 254 256 258 260 262 263 265 267 268 267 267 268 269 270 272 273 273 272 272 272 272 274 276 277 279 280 282 284 287 289 292 293 292 291 290 289 290 294 295 297 297 297 298 300 301 302 304 304 304 304 303 302 303 303 304 305 306 306 304 301 294 286 280 278 279 283 287
250 252 253 253 254 254 254 255 257 259 261 262 264 266 268 268 268 269 271 272 273 274 275 274 273 271 271 270 270 271 272 274 275 277 280 283 286 289 290 290 290 289 289 291 293 294 294 295 295 296 296 297 299 301 302 302 302 301 300 301 301 302 303 305 305 304 302 298 292 285 279 277 278 281
251 251 252 253 253 254 255 256 257 259 261 263 266 267 268 268 269 271 273 275 277 277 277 277 276 274 273 271 271 270 270 271 273 275 278 280 283 286 287 287 288 288 289 290 291 291 291 292 292 293 293 293 296 299 300 300 299 298 298 298 298 299 301 303 303 302 301 300 297 293 287 281 279 279
252 252 252 253 253 254 255 256 258 259 262 264 266 267 267 268 270 271 273 275 277 277 277 277 277 276 275 273 272 271 271 272 274 275 277 278 280 282 283 284 286 287 288 289 290 289 290 290 290 290 291 292 294 295 296 296 296 295 295 294 294 296 298 300 301 301 300 299 298 297 293 288 284 281
253 253 252 252 252 253 255 256 258 260 261 263 264 265 266 267 268 270 271 272 273 274 274 274 275 275 276 275 275 274 274 275 276 277 277 278 279 280 282 283 284 285 286 287 288 288 288 289 289 290 290 292 293 294 294 295 295 293 291 289 290 292 296 298 299 299 299 299 299 298 295 291 288 284
252 252 252 252 253 254 255 257 258 260 262 264 264 265 265 265 265 266 268 269 271 272 273 273 273 274 275 276 276 277 277 278 279 279 279 280 280 281 281 281 282 283 284 285 286 287 287 288 289 290 291 293 295 296 296 296 297 294 289 285 285 289 294 297 298 298 299 300 300 299 296 291 287 284
250 250 250 251 252 253 255 256 258 261 263 264 265 265 265 265 265 265 265 266 269 271 272 273 273 273 273 274 275 277 278 279 280 281 281 282 282 282 282 282 282 282 282 283 284 284 285 286 289 291 293 295 297 298 298 299 299 296 290 283 281 286 292 296 297 297 299 301 301 301 299 294 288 282
247 247 249 252 254 257 259 259 260 261 262 262 263 265 266 268 268 268 266 266 267 268 269 270 271 271 272 273 275 275 276 277 278 280 282 283 283 283 282 283 283 282 281 280 281 282 284 286 288 291 294 295 297 299 300 300 300 297 290 283 282 287 291 293 294 295 298 301 303 303 302 300 294 286
248 251 254 258 261 263 264 263 261 260 259 260 261 263 265 267 269 270 270 269 268 269 269 269 270 270 272 273 275 275 276 277 277 278 280 281 281 282 282 284 284 283 281 279 279 280 283 286 288 290 293 294 295 296 298 299 299 294 288 284 285 287 288 290 291 293 296 299 302 303 302 302 300 293
257 260 261 261 262 263 265 266 265 262 260 260 261 262 264 266 268 269 270 271 270 270 270 271 272 272 273 274 275 277 279 280 279 278 278 278 278 280 282 284 284 282 281 279 278 279 283 285 287 288 290 291 292 293 293 295 296 292 286 284 283 283 284 286 288 290 294 298 300 301 301 301 300 297
255 258 259 260 261 261 264 267 269 267 264 262 263 264 266 268 270 271 272 272 272 271 272 274 276 276 276 277 278 280 282 283 282 282 281 279 278 279 281 282 283 282 281 279 278 279 281 283 284 286 289 291 292 291 290 291 290 287 285 284 280 277 279 283 284 286 291 295 296 298 299 299 298 296
246 250 254 256 259 260 261 265 268 267 264 261 261 263 265 268 271 273 274 274 274 273 274 276 278 279 279 279 281 282 284 285 287 288 287 284 280 279 281 282 283 282 280 278 277 276 277 279 282 285 288 290 290 289 288 287 284 280 281 283 280 275 276 278 279 282 288 292 293 295 295 296 296 295
247 246 248 251 254 256 259 262 265 265 262 261 261 262 264 267 270 273 275 277 277 277 277 277 278 280 280 280 281 282 284 286 288 290 290 288 285 282 281 281 281 281 279 277 275 274 274 276 280 283 286 287 288 287 285 282 280 276 275 277 277 275 275 275 275 279 285 289 292 293 293 293 294 293
257 253 251 251 253 255 258 261 264 266 266 265 265 266 268 269 271 272 275 277 279 280 280 279 279 280 281 281 281 282 283 285 286 287 288 288 286 283 282 280 280 279 278 276 274 273 273 274 277 281 283 286 288 287 283 280 281 281 278 276 274 273 273 273 274 277 282 286 290 292 293 292 291 290
265 264 261 259 259 260 262 264 267 269 270 270 269 270 270 272 273 275 276 278 281 282 282 283 283 283 283 283 283 283 284 284 285 285 285 285 284 283 282 281 281 281 280 277 275 274 274 276 277 279 281 284 287 287 285 284 284 283 282 280 274 270 270 273 275 278 281 285 287 289 291 291 289 287
268 267 267 265 264 265 266 268 270 272 273 273 273 272 271 271 273 275 276 279 281 282 283 283 284 284 284 284 283 283 283 284 284 284 284 283 283 283 282 282 282 283 282 279 277 276 276 277 278 279 281 283 285 285 285 282 277 276 277 277 272 267 268 272 275 278 281 284 285 286 288 289 289 287
267 267 268 267 267 266 267 269 271 272 273 274 274 274 274 274 275 275 275 277 279 281 283 284 283 283 284 284 283 283 282 283 284 284 283 283 283 283 283 283 284 284 283 281 279 278 276 277 280 283 284 284 284 284 285 281 275 271 271 270 268 266 267 271 274 276 278 281 284 284 285 288 288 287
266 267 268 269 269 268 267 268 269 270 270 272 273 274 275 276 276 276 276 277 278 280 281 282 282 281 280 281 282 282 283 283 283 283 284 284 283 283 283 284 284 284 284 283 282 280 280 282 284 286 288 289 289 290 288 284 277 272 270 267 265 265 267 271 275 275 274 278 281 283 284 286 287 286
264 266 268 269 269 269 267 266 267 268 269 270 272 273 275 276 276 276 278 279 280 281 282 282 282 281 279 279 280 281 283 284 284 283 284 285 285 284 283 284 285 286 285 284 284 284 285 286 286 285 287 291 293 292 289 283 277 274 271 268 266 266 268 271 275 274 273 275 278 281 283 285 285 285
261 263 265 267 268 269 267 265 265 267 268 269 271 272 273 274 274 275 277 279 281 283 283 283 283 282 282 282 282 283 285 286 286 285 285 286 287 287 285 284 284 285 286 286 287 286 286 285 284 284 287 291 292 290 287 281 276 273 270 267 266 267 268 270 272 273 272 273 275 279 283 284 284 285
260 261 262 264 267 268 266 263 263 265 267 268 270 271 272 273 274 276 278 280 282 283 282 281 281 281 282 283 283 284 286 286 285 285 287 288 289 288 286 285 284 284 284 285 285 285 285 285 285 286 288 290 291 290 287 281 275 271 269 268 267 266 266 267 270 272 272 271 272 277 281 283 284 286
259 260 261 263 266 268 265 262 262 264 266 268 270 271 272 274 276 277 279 281 282 282 281 279 278 279 280 282 283 285 287 286 284 283 286 288 289 288 286 285 284 284 283 283 283 284 284 285 286 287 288 289 290 290 289 284 277 270 266 266 267 266 265 266 269 271 271 270 272 276 281 282 283 285